Overview Statistics Trail Chart Weather Telemetry Raw packets
 

This is the latest recevied weather packets stored in our database for station/object KD2FKI. If no packets are shown the sender has not sent any weather packets the latest 10 day(s).

<< 8 9 10 11 12 13 14 >>
Time Temp. Humidity Pressure Rain* Wind** Luminosity Snow
1788275132 32.78° C 58% - 0 mm - - -
1788274529 31.67° C 61% - 0 mm - - -
1788273924 31.11° C 63% - 0 mm - - -
1788273327 31.11° C 65% - 0 mm - - -
1788272722 30.56° C 63% - 0 mm - - -
1788272135 30.56° C 66% - 0 mm - - -
1788271554 30° C 66% - 0 mm - - -
1788270931 29.44° C 68% - 0 mm - - -
1788270329 28.89° C 69% - 0 mm - - -
1788269729 28.89° C 70% - 0 mm - - -
1788269125 28.33° C 74% - 0 mm - - -
1788268524 27.78° C 77% - 0 mm - - -
1788267923 26.67° C 82% - 0 mm - - -
1788267349 26.11° C 85% - 0 mm - - -
1788266737 25.56° C 86% - 0 mm - - -
1788266131 25° C 88% - 0 mm - - -
1788265529 24.44° C 89% - 0 mm - - -
1788264932 24.44° C 89% - 0 mm - - -
1788264327 24.44° C 89% - 0 mm - - -
1788263723 24.44° C 91% - 0 mm - - -
1788263121 23.89° C 91% - 0 mm - - -
1788262536 23.33° C 91% - 0 mm - - -
1788261935 23.33° C 91% - 0 mm - - -
1788261334 23.33° C 91% - 0 mm - - -
1788260729 23.33° C 91% - 0 mm - - -

* Rain latest hour (hover to see other rain measurements)
** Current wind speed in m/s (hover to see current wind gust speed)